Hauptseite
METAR-TAF:

METAR-TAF

Flughäfen :

Flughafen Colmar

Colmar, Frankreich

Breite: 48-06-37N, Länge: 7-21-33E, Höhe: 191 m

Beobachtung

Neuester Wetterbericht von vor 12 Minuten, um 10:30 UTC
Wind 5 kt aus Nordost, variierte zwischen Nord/Nordwest und Ost/Südost
Temperatur 26°C
Luftfeuchtigkeit 54%
Luftdruck 1017 hPa
Sichtweite 10 km oder mehr
keine Wolken unter 1500 m und keine Kumulonimbus oder Gewitterwolken

METAR: LFGA 181030Z AUTO 04005KT 330V110 CAVOK 26/16 Q1017

Zeit: 12:42 (10:42 UTC)


TAF: fehlend

Wetterbeobachtungen und Prognosen von mehr als 4000 Flughäfen (METAR und TAF Bericht).

Die verfügbaren Stationen werden durch gelbe und rote Markierungen auf der Karte dargestellt.

Führen Sie die Maus auf sie, um den Namen der Station zu sehen.

Darauf klicken, um die Beobachtung von Wetterbeobachtungen und Prognosen zu sehen.

Um die Karte zu ändern : klicken Sie auf den grünen Tasten mit einem schwarzen Kreuz Zum Vergrößern, auf den grünen Button mit einem Gedankenstrich zu verkleinern, oder auf die grünen Pfeile für benachbarte Karten.


METAR-TAF: